Home > Time Zones > World Clock > Weather > Russia > Perm > Past weeks

Flag for Russia Weather past 2 weeks in Perm, Russia

Now
27 °F

Clear.


Feels Like: 18 °F
Forecast: 17 / 27 °F
Wind: 8 mph from Southeast

Location: Perm'/Bolshoe Savino

Current Time: Mar 6, 2015 at 1:45:32 AM

Latest Report: Mar 6, 2015 at 1:00 AM


Visibility: 10 mi

Pressure: 30.33 "Hg

Humidity: 54%

Dew point: 12 °F

Location of PermLocation

Historic Weather in Perm — Graph

°F

Perm temperature yesterday

Maximum temperature yesterday: 37 °F (at 4:30 PM)
Minimum temperature yesterday: 10 °F (at 12:00 AM)
Average temperature yesterday: 24 °F

Past Weeks' High & Low Weather Summary

 TemperatureHumidityPressure
High43 °F (Mar 3, 3:00 PM)100% (Feb 22, 9:00 AM)30.57 "Hg (Feb 22, 9:00 AM)
Low-13 °F (Feb 20, 9:30 AM)26% (Mar 2, 5:00 PM)29.62 "Hg (Feb 21, 12:00 AM)
Average22 °F76%30.23 "Hg
* Reported Midnight between Feb 18 and Feb 19 — Mar 6 12:30 AM, Perm, Weather by CustomWeather, © 2015

Note: Actual official high and low records may vary slightly from our data, if they occured in-between our weather recording intervals... More about our weather records

Advertising

Perm weather history for previous 24 hours

 ConditionsComfort  
Time TempWeatherWind HumidityBarometerVisibility
12:30 AM
Fri, Mar 6
27 °FClear.10 mph54%30.33 "Hg10 mi
12:00 AM27 °FClear.8 mph50%30.33 "Hg10 mi
11:30 PM
Thu, Mar 5
27 °FClear.8 mph46%30.33 "Hg10 mi
11:00 PM25 °FClear.8 mph50%30.33 "Hg10 mi
10:30 PM25 °FClear.6 mph46%30.33 "Hg10 mi
10:00 PM27 °FClear.6 mph43%30.30 "Hg10 mi
9:30 PM25 °FClear.3 mph46%30.30 "Hg10 mi
9:00 PM28 °FClear.3 mph37%30.30 "Hg10 mi
8:30 PM30 °FSunny.3 mph34%30.30 "Hg10 mi
8:00 PM32 °FSunny.6 mph32%30.30 "Hg10 mi
7:30 PM32 °FSunny.6 mph34%30.27 "Hg10 mi
7:00 PM32 °FSunny.3 mph37%30.27 "Hg10 mi
6:30 PM36 °FPassing clouds.3 mph30%30.27 "HgN/A
6:00 PM36 °FSunny.No wind30%30.27 "Hg10 mi
5:30 PM37 °FSunny.3 mph28%30.27 "Hg10 mi
5:00 PM37 °FSunny.3 mph28%30.27 "Hg10 mi
4:30 PM37 °FSunny.1 mph33%30.27 "Hg10 mi
4:00 PM36 °FSunny.6 mph35%30.27 "Hg10 mi
3:30 PM36 °FSunny.6 mph35%30.27 "Hg10 mi
3:00 PM34 °FSunny.8 mph38%30.27 "Hg10 mi
2:30 PM34 °FSunny.8 mph38%30.27 "Hg10 mi
2:00 PM34 °FSunny.8 mph38%30.27 "Hg10 mi
1:30 PM34 °FSunny.10 mph35%30.27 "Hg10 mi
1:00 PM34 °FSunny.10 mph35%30.27 "Hg10 mi
12:30 PM32 °FSunny.10 mph37%30.27 "Hg10 mi
12:00 PM30 °FSunny.8 mph40%30.27 "Hg10 mi
11:30 AM28 °FSunny.8 mph40%30.27 "Hg10 mi
11:00 AM27 °FSunny.8 mph43%30.27 "Hg10 mi
10:30 AM21 °FSunny.3 mph54%30.27 "Hg10 mi
10:00 AM18 °FSunny.1 mph58%30.24 "Hg10 mi
9:30 AM16 °FClear.No wind67%30.24 "Hg10 mi
8:30 AM16 °FClear.3 mph62%30.24 "Hg10 mi
8:00 AM16 °FPassing clouds.3 mph67%30.24 "HgN/A
7:00 AM16 °FClear.3 mph67%30.21 "Hg10 mi
6:30 AM12 °FClear.3 mph67%30.21 "Hg10 mi
6:00 AM18 °FClear.6 mph62%30.21 "Hg10 mi
5:30 AM18 °FClear.8 mph68%30.21 "Hg10 mi
5:00 AM14 °FClear.8 mph73%30.18 "Hg10 mi
4:30 AM12 °FClear.8 mph85%30.18 "Hg10 mi
4:00 AM18 °FClear.8 mph68%30.18 "Hg10 mi
3:30 AM18 °FClear.3 mph73%30.18 "Hg10 mi
3:00 AM12 °FPassing clouds.3 mph79%30.18 "Hg5 mi
2:00 AM10 °FPartly cloudy.1 mph85%30.18 "Hg4 mi
1:30 AM10 °FPassing clouds.No wind85%30.18 "Hg5 mi
1:00 AM12 °FPassing clouds.1 mph79%30.18 "Hg5 mi
Weather by CustomWeather, © 2015

See weather overviewHow to use our weather pages